Regional Weather Roundup
Issued by NWS Charleston, SC

Current Version | Previous Version | Graphics & Text | Print | Product List | Glossary On
Versions: 1 2 3 4 5 6 7 8 9 10 11 12 13 14 15 16 17 18 19 20 21 22 23 24 25 26 27 28 29 30 31 32 33 34 35 36 37 38 39 40 41 42 43 44 45 46 47 48 49 50
000
ASUS42 KCHS 240325
RWRCHS

REGIONAL WEATHER ROUNDUP
NATIONAL WEATHER SERVICE CHARLESTON SC
1100 PM EDT WED APR 23 2014

NOTE: "FAIR" INDICATES FEW OR NO CLOUDS BELOW 12,000 FEET WITH NO
SIGNIFICANT WEATHER AND/OR OBSTRUCTIONS TO VISIBILITY.

NOT ALL STATIONS ARE QUALITY CONTROLLED BY THE NATIONAL
WEATHER SERVICE. USE DATA WITH CAUTION...ESPECIALLY
DEWPOINT OBSERVATIONS.

SCZ027-030-031-034>040-042>050-240400-
...SOUTH CAROLINA...

CITY           SKY/WX    TMP DP  RH WIND       PRES   REMARKS
N CHARLESTON   CLEAR     65  52  62 CALM      29.92R
WATERFRONT PRK   N/A     66 N/A N/A N3          N/A
FORT JOHNSON     N/A     66  63  88 CALM      29.96R
MOUNT PLEASANT LGT RAIN  63  61  94 CALM      29.92R
JOHNS ISLAND   CLEAR     63  63 100 CALM      29.93R FOG
PINOPOLIS        N/A     70  52  52 MISG      29.82S
MONCKS CORNER  FAIR      59  57  94 CALM      29.92R
SUMMERVILLE    NOT AVBL
BEAUFORT MCAS  CLEAR     61  53  75 NE3       29.91R
BEAUFORT ARPT  FAIR      63  59  88 N5        29.92R
HILTON HEAD IS CLEAR     63  61  94 CALM      29.93R
GEORGETOWN     NOT AVBL
WALTERBORO     CLEAR     59  59 100 CALM      29.93R
ORANGEBURG     CLEAR     59  50  72 NE3       29.92R
BARNWELL       FAIR      61  48  63 CALM      29.93R
AIKEN          FAIR      57  54  88 CALM      29.96R
MANNING        FAIR      54  54 100 CALM      29.94R
KINGSTREE      NOT AVBL
COLUMBIA       CLEAR     57  47  69 CALM      29.92R
SUMTER         CLEAR     64  40  41 NE3       29.92R
FLORENCE       CLEAR     55  42  61 CALM      29.93R
MYRTLE BEACH   CLEAR     63  46  55 E8        29.94R
N MYRTLE BEACH PTCLDY    56  51  84 CALM      29.94R

$$

GAZ063-065-086>088-099>101-113>116-118-119-134-136>141-150-240400-
...GEORGIA...

CITY           SKY/WX    TMP DP  RH WIND       PRES   REMARKS
SAVANNAH ARPT  CLEAR     65  55  70 CALM      29.92R
HUNTER AAF     CLEAR     65  56  72 CALM      29.90R
FORT STEWART   CLEAR     63  61  93 N2        29.91R
STATESBORO     NOT AVBL
SYLVANIA       CLEAR     60  54  80 CALM      29.92S
CLAXTON        FAIR     N/A N/A N/A CALM      29.93R
THOMSON        CLEAR     55  55  99 CALM      29.97R
AUGUSTA-BUSH   CLEAR     55  49  80 S3        29.91R
AUGUSTA-DANIEL CLEAR     69  39  33 N3        29.92R
SWAINSBORO     FAIR      55  54  94 CALM      29.93S
VIDALIA        CLEAR     63  57  82 CALM      29.93S
ALMA           CLEAR     62  58  86 CALM      29.93R
WAYCROSS       NOT AVBL
JESUP          FAIR      59  59 100 CALM      29.93S
BRUNSWICK      CLEAR     63  61  94 CALM      29.94S
SAINT SIMONS   CLEAR     69  62  78 CALM      29.93R

$$

SCZ027-028-034-036>038-045-046-048>050-GAZ119-141-240400-
...LAKE AND SUPPLEMENTAL COASTAL OBSERVATIONS...

STATION/POSITION TIME  TEMP    WIND        PRES    WAVE   SWELL
                       AIR SEA DIR/SP/G            HT/PER HT/PER/DIR
                 (UTC) (F)     (DEG/KT/KT) (MB)    (FT/S) (FT/S/D)
UPR LAKE MARION  NOT AVBL
WINYAH BAY       0300   64        CALM     1013.0S
LAKE MURRAY      0200   61     240/  3/  4 1012.9R
ACE BASIN NERRS  0300   63        CALM     1012.0S
FORT PULASKI     0300   67 60  200/  3/  4 1013.5R
SAPELO ISLAND    0300   68     160/  5     1013.0S

$$

ANZ835-935-AMZ111-154-330-350-352-354-374-450-454-472-240400-
...C-MAN AND BUOY OBSERVATIONS...

STATION/POSITION TIME  TEMP    WIND        PRES    WAVE   SWELL
                       AIR SEA DIR/SP/G            HT/PER HT/PER/DIR
                 (UTC) (F)     (DEG/KT/KT) (MB)    (FT/S) (FT/S/D)
FOLLY BEACH CMAN 0300   66     220/  3/  4 1013.5R
BUOY 41004       0300   67 67  230/  6/  6 1012.6R   3/ 5   2/ 5
BUOY 41008       0300   69 68  210/  6/  8 1013.5R   1/ 8   2/100/ 8
5E ST. MARYS GA  0300      67                N/A     2/ 8
FRYING PAN BUOY  0300   67 68   20/  8/ 10 1013.2R   2/ 8   2/110/ 8
BUOY 41025       0300   61 75   20/ 12/ 14 1013.4R   4/ 9   3/ 50/ 9
CAPE LOOKOUT NC  0300   62      30/  4/  4 1013.2R
BUOY 41002       NOT AVBL
BUOY 41010       0300   74 75  220/  6/  6 1014.5R   3/ 8   2/ 60/ 8
BUOY 41012       NOT AVBL
ST AUGUSTINE FL  0300   70     190/  7/  8 1014.5R
CAPERS NEARSHORE NOT AVBL
FRIPP NEARSHORE  0200   68     240/  8/ 10   N/A


$$


USA.gov is the U.S. government's official web portal to all federal, state and local government web resources and services.